Tracking 19254 objects as of 18-Oct-2018
HD Live streaming from Space Station
objects crossing your sky now

CZ-4C DEB

Track CZ-4C DEB now!
10-day predictions


NORAD ID: 39231
Int'l Code: 2013-037H
Perigee: 675.3 km
Apogee: 1,046.9 km
Inclination: 98.1 °
Period: 102.0 minutes
Semi major axis: 7232 km
RCS: Unknown
Launch date: July 19, 2013
Source: People's Republic of China (PRC)
Launch site: Taiyaun Space Center, China (TSC)

Note: This is SATELLITE DEBRIS
aabbcc
Your satellite tracking list
Your tracking list is empty




NASA's NSSDC Master Catalog

Two Line Element Set (TLE):
1 39231U 13037H   18291.47677847  .00000345  00000-0  15467-3 0  9991
2 39231  98.1097 155.6480 0256965  68.1591 294.6702 14.11580073265087
Source of the keplerian elements: AFSPC